Aeroporto :
LOGIN :

Iscrizione | Disclaimer

   EN    FR    IT 

 










Sommario :    VFR   VFR Marginale   IFR   IFR Intensivo   IFR Molto Intensivo
Visibilità : 
Base nubi : 
>= 8 km
>= 3000ft
5 / 8 km
1000 / 3000 ft
1500m / 5 km
500 / 1000 ft
800 / 1500m
200 / 500 ft
< 800m
< 200 ft
Simboli :   Temporali  Nebbia  Neve Forte  Precipitazioni Forti  Vento > 20 kt
SIGMETs :   Varie  Temporali  Ghiacco  Turbolenza  Onda orograficha  Ceneri Vulcaniche






- Altitudine del aeroporto : 297 ft
- Codice IATA : BBU


LRBS - Bucarest - Baneasa Aurel Vlaicu

ULTIMO METAR :
  • 011430Z 10008KT 070V130 9999 FEW048 07/M05 Q1020 NOSIG

METARs OBSOLETI :
  • 011400Z 10010KT 070V130 CAVOK 07/M05 Q1020 NOSIG
  • 011330Z 11010KT CAVOK 07/M05 Q1020 NOSIG
  • 011300Z 10010KT CAVOK 07/M06 Q1021 NOSIG
  • 011230Z 07012KT 040V100 CAVOK 07/M07 Q1021 NOSIG
  • 011200Z 08012KT CAVOK 07/M08 Q1021 NOSIG

TAF TAF LRBS
Valido dal 01 a 12 ore il 02 a 12 ore UTC


011100Z 0112/0212 07012KT CAVOK
BECMG 0120/0122 VRB04KT



MetMap, La meteo Aeronautica in un colpo d'occhio ! - Copyright ORBIFLY Dicembre 2007 - Disclaimer

ORBIFLY MET'MAP TEAM :

Programmazione e sviluppo : Alexandra Zaïnal
Concezione : Baudouin d'Aumeries
Aiuto per la programmazione : Marc-Olivier Méhu
Supporto tecnico e logistico : Manuel Goepfert
Aiuto per la traduzione : Arnaldo La Scala

Contatto : metmap@orbifly.com




FONTI E CREDITI :

   NOAA